• In Portugal
  • List of Countries
  • For 7 days
  • Water Temperature
  • Satellite Maps
  • Weather Map
  • Weather Widgets
  • user-avatar
    Login

    Hourly Weather Nashavar

    Today, 23 January, Tuesday

    Time Temperature Precipitation Wind Pressure Humidity
    00:00 +13°C° 0 mm 1 mps 727 mmHg 26%
    01:00 +13°C° 0 mm 1 mps 727 mmHg 26%
    02:00 +12°C° 0 mm 2 mps 727 mmHg 26%
    03:00 +12°C° 0 mm 2 mps 727 mmHg 25%
    04:00 +12°C° 0 mm 2 mps 727 mmHg 24%
    05:00 +10°C° 0 mm 2 mps 727 mmHg 21%
    06:00 +10°C° 0 mm 2 mps 727 mmHg 21%
    07:00 +10°C° 0 mm 2 mps 728 mmHg 20%
    08:00 +10°C° 0 mm 2 mps 728 mmHg 19%
    09:00 +14°C° 0 mm 2 mps 728 mmHg 17%
    10:00 +16°C° 0 mm 2 mps 728 mmHg 15%
    11:00 +18°C° 0 mm 2 mps 728 mmHg 13%
    12:00 +19°C° 0 mm 2 mps 728 mmHg 12%
    13:00 +20°C° 0 mm 2 mps 727 mmHg 12%
    14:00 +21°C° 0 mm 3 mps 727 mmHg 12%
    15:00 +20°C° 0 mm 2 mps 727 mmHg 13%
    16:00 +19°C° 0 mm 2 mps 727 mmHg 14%
    17:00 +19°C° 0 mm 2 mps 727 mmHg 15%
    18:00 +17°C° 0 mm 2 mps 727 mmHg 16%
    19:00 +16°C° 0 mm 2 mps 727 mmHg 16%
    20:00 +14°C° 0 mm 1 mps 728 mmHg 17%
    21:00 +14°C° 0 mm 1 mps 728 mmHg 18%
    22:00 +13°C° 0 mm 1 mps 728 mmHg 18%
    23:00 +13°C° 0 mm 1 mps 728 mmHg 19%

    Tomorrow, 24 January, Wednesday

    Time Temperature Precipitation Wind Pressure Humidity
    00:00 +12°C° 0 mm 1 mps 728 mmHg 20%
    01:00 +11°C° 0 mm 1 mps 728 mmHg 21%
    02:00 +11°C° 0 mm 1 mps 728 mmHg 22%
    03:00 +11°C° 0 mm 1 mps 728 mmHg 23%
    04:00 +10°C° 0 mm 1 mps 728 mmHg 23%
    05:00 +10°C° 0 mm 1 mps 727 mmHg 24%
    06:00 +10°C° 0 mm 1 mps 728 mmHg 24%
    07:00 +9°C° 0 mm 0 mps 728 mmHg 25%
    08:00 +9°C° 0 mm 0 mps 729 mmHg 25%
    09:00 +12°C° 0 mm 1 mps 729 mmHg 22%
    10:00 +14°C° 0 mm 1 mps 730 mmHg 19%
    11:00 +18°C° 0 mm 1 mps 730 mmHg 15%
    12:00 +19°C° 0 mm 1 mps 730 mmHg 15%
    13:00 +19°C° 0 mm 1 mps 729 mmHg 14%
    14:00 +20°C° 0 mm 1 mps 729 mmHg 14%
    15:00 +20°C° 0 mm 1 mps 729 mmHg 16%
    16:00 +19°C° 0 mm 1 mps 729 mmHg 18%
    17:00 +19°C° 0 mm 1 mps 729 mmHg 19%
    18:00 +16°C° 0 mm 1 mps 729 mmHg 21%
    19:00 +15°C° 0 mm 1 mps 730 mmHg 23%
    20:00 +12°C° 0 mm 0 mps 730 mmHg 25%
    21:00 +13°C° 0 mm 1 mps 730 mmHg 25%
    22:00 +12°C° 0 mm 1 mps 730 mmHg 26%
    23:00 +12°C° 0 mm 1 mps 730 mmHg 26%

    Day after tomorrow, 25 January, Thursday

    Time Temperature Precipitation Wind Pressure Humidity
    00:00 +12°C° 0 mm 1 mps 730 mmHg 26%
    01:00 +11°C° 0 mm 1 mps 730 mmHg 25%
    02:00 +11°C° 0 mm 1 mps 730 mmHg 25%
    03:00 +11°C° 0 mm 1 mps 730 mmHg 25%
    04:00 +10°C° 0 mm 1 mps 729 mmHg 25%
    05:00 +10°C° 0 mm 1 mps 729 mmHg 24%
    06:00 +10°C° 0 mm 1 mps 729 mmHg 24%
    07:00 +10°C° 0 mm 1 mps 729 mmHg 23%
    08:00 +10°C° 0 mm 1 mps 729 mmHg 23%
    09:00 +13°C° 0 mm 1 mps 729 mmHg 19%
    10:00 +15°C° 0 mm 1 mps 729 mmHg 16%
    11:00 +18°C° 0 mm 1 mps 729 mmHg 13%
    12:00 +18°C° 0 mm 2 mps 729 mmHg 12%
    13:00 +19°C° 0 mm 2 mps 728 mmHg 11%
    14:00 +20°C° 0 mm 2 mps 728 mmHg 10%
    15:00 +19°C° 0 mm 2 mps 728 mmHg 12%
    16:00 +20°C° 0 mm 1 mps 727 mmHg 13%
    17:00 +19°C° 0 mm 1 mps 727 mmHg 15%
    18:00 +18°C° 0 mm 1 mps 728 mmHg 16%
    19:00 +15°C° 0 mm 1 mps 728 mmHg 16%
    20:00 +14°C° 0 mm 1 mps 729 mmHg 17%
    21:00 +13°C° 0 mm 1 mps 729 mmHg 17%
    22:00 +13°C° 0 mm 1 mps 729 mmHg 18%
    23:00 +12°C° 0 mm 1 mps 729 mmHg 18%

    26 January, Friday

    Time Temperature Precipitation Wind Pressure Humidity
    00:00 +12°C° 0 mm 1 mps 729 mmHg 19%
    01:00 +11°C° 0 mm 1 mps 729 mmHg 19%
    02:00 +11°C° 0 mm 1 mps 729 mmHg 19%
    03:00 +11°C° 0 mm 1 mps 729 mmHg 19%
    04:00 +10°C° 0 mm 1 mps 729 mmHg 19%
    05:00 +10°C° 0 mm 1 mps 729 mmHg 19%
    06:00 +10°C° 0 mm 1 mps 730 mmHg 20%
    07:00 +10°C° 0 mm 1 mps 730 mmHg 20%
    08:00 +10°C° 0 mm 1 mps 730 mmHg 20%
    09:00 +12°C° 0 mm 1 mps 730 mmHg 18%
    10:00 +15°C° 0 mm 1 mps 730 mmHg 15%
    11:00 +18°C° 0 mm 1 mps 730 mmHg 12%
    12:00 +19°C° 0 mm 1 mps 730 mmHg 12%
    13:00 +20°C° 0 mm 1 mps 729 mmHg 11%
    14:00 +21°C° 0 mm 1 mps 728 mmHg 11%
    15:00 +20°C° 0 mm 1 mps 728 mmHg 13%
    16:00 +19°C° 0 mm 1 mps 728 mmHg 15%
    17:00 +19°C° 0 mm 1 mps 728 mmHg 16%
    18:00 +16°C° 0 mm 1 mps 728 mmHg 17%
    19:00 +15°C° 0 mm 1 mps 729 mmHg 19%
    20:00 +13°C° 0 mm 1 mps 729 mmHg 20%
    21:00 +13°C° 0 mm 1 mps 730 mmHg 20%
    22:00 +12°C° 0 mm 1 mps 730 mmHg 21%
    23:00 +12°C° 0 mm 1 mps 730 mmHg 21%

    27 January, Saturday

    Time Temperature Precipitation Wind Pressure Humidity
    00:00 +11°C° 0 mm 1 mps 730 mmHg 21%
    01:00 +11°C° 0 mm 1 mps 730 mmHg 22%
    02:00 +10°C° 0 mm 1 mps 729 mmHg 22%
    03:00 +10°C° 0 mm 1 mps 729 mmHg 22%
    04:00 +10°C° 0 mm 1 mps 729 mmHg 22%
    05:00 +9°C° 0 mm 1 mps 729 mmHg 22%
    06:00 +10°C° 0 mm 1 mps 729 mmHg 22%
    07:00 +10°C° 0 mm 1 mps 730 mmHg 22%
    08:00 +10°C° 0 mm 1 mps 730 mmHg 22%
    09:00 +12°C° 0 mm 1 mps 730 mmHg 19%
    10:00 +14°C° 0 mm 1 mps 730 mmHg 16%
    11:00 +16°C° 0 mm 1 mps 730 mmHg 13%
    12:00 +18°C° 0 mm 1 mps 729 mmHg 13%
    13:00 +19°C° 0 mm 1 mps 729 mmHg 12%
    14:00 +20°C° 0 mm 1 mps 728 mmHg 12%
    15:00 +19°C° 0 mm 1 mps 728 mmHg 13%
    16:00 +19°C° 0 mm 1 mps 728 mmHg 15%
    17:00 +19°C° 0 mm 1 mps 728 mmHg 17%
    18:00 +16°C° 0 mm 1 mps 728 mmHg 18%
    19:00 +14°C° 0 mm 1 mps 729 mmHg 20%
    20:00 +12°C° 0 mm 0 mps 729 mmHg 21%
    21:00 +12°C° 0 mm 0 mps 730 mmHg 22%
    22:00 +12°C° 0 mm 1 mps 730 mmHg 22%
    23:00 +12°C° 0 mm 1 mps 730 mmHg 22%

    28 January, Sunday

    Time Temperature Precipitation Wind Pressure Humidity
    00:00 +11°C° 0 mm 1 mps 730 mmHg 22%
    01:00 +11°C° 0 mm 1 mps 730 mmHg 23%
    02:00 +10°C° 0 mm 1 mps 730 mmHg 23%
    03:00 +10°C° 0 mm 1 mps 730 mmHg 23%
    04:00 +10°C° 0 mm 1 mps 730 mmHg 23%
    05:00 +9°C° 0 mm 1 mps 730 mmHg 23%
    06:00 +10°C° 0 mm 1 mps 730 mmHg 23%
    07:00 +10°C° 0 mm 1 mps 731 mmHg 23%
    08:00 +10°C° 0 mm 1 mps 731 mmHg 24%
    09:00 +12°C° 0 mm 1 mps 731 mmHg 20%
    10:00 +14°C° 0 mm 1 mps 732 mmHg 17%
    11:00 +18°C° 0 mm 1 mps 732 mmHg 14%
    12:00 +18°C° 0 mm 1 mps 731 mmHg 14%
    13:00 +19°C° 0 mm 1 mps 731 mmHg 13%
    14:00 +19°C° 0 mm 2 mps 730 mmHg 12%
    15:00 +20°C° 0 mm 1 mps 730 mmHg 14%
    16:00 +19°C° 0 mm 1 mps 730 mmHg 15%
    17:00 +19°C° 0 mm 1 mps 730 mmHg 17%
    18:00 +18°C° 0 mm 1 mps 730 mmHg 18%
    19:00 +15°C° 0 mm 1 mps 730 mmHg 19%
    20:00 +13°C° 0 mm 0 mps 731 mmHg 20%
    21:00 +13°C° 0 mm 0 mps 731 mmHg 20%
    22:00 +12°C° 0 mm 0 mps 731 mmHg 21%
    23:00 +12°C° 0 mm 0 mps 732 mmHg 22%
    Show more